Wind_Speed
28 27 28 28 27 27 27 26 25 23 22 21 21 20 18 18 17 16 15 15 15 14 13 13 13 13 12 11 10 10 10 10 10 10 10 11 11 12 12 12 12 12 12 12
28 28 29 29 28 27 27 27 27 25 23 22 22 21 21 20 19 19 17 16 17 17 16 16 16 15 14 14 13 13 13 13 13 12 12 12 12 13 13 14 14 14 14 14
29 29 30 30 27 26 27 27 27 26 23 23 23 23 22 22 21 20 20 19 19 18 18 18 17 17 17 17 17 17 16 16 15 15 15 15 15 15 15 15 16 16 15 15
30 30 32 29 27 27 27 28 27 26 26 26 25 24 23 23 23 22 22 21 21 21 20 19 19 19 19 19 19 19 18 17 17 17 17 17 17 17 18 18 18 18 18 18
31 32 32 29 28 28 28 29 28 27 27 27 26 26 25 24 24 24 24 23 23 22 22 21 21 21 21 20 20 20 20 19 19 19 19 19 19 20 20 20 20 20 20 21
33 34 34 30 28 28 28 28 27 27 27 27 26 27 27 25 25 24 24 24 24 23 23 23 23 23 23 22 22 22 22 22 21 21 21 21 20 20 21 21 22 23 23 23
34 34 34 32 29 29 31 30 28 27 26 26 26 26 26 25 25 25 26 26 25 25 25 25 25 24 24 23 23 23 24 23 22 23 23 23 23 23 23 23 24 24 25 25
35 35 34 32 32 32 30 30 30 28 27 26 26 25 25 26 26 27 26 26 26 27 26 25 25 25 25 24 24 24 24 24 25 25 25 26 26 26 26 26 26 26 26 26
37 36 34 33 33 32 31 30 30 29 28 28 28 27 27 27 28 27 27 26 27 27 26 26 26 26 26 26 26 25 25 26 27 27 27 27 27 27 28 28 28 28 27 27
37 36 35 34 33 33 32 32 31 31 30 30 30 30 29 29 29 28 28 27 27 27 26 26 27 26 26 26 26 27 27 28 28 29 29 29 29 30 30 30 29 30 30 30
37 36 35 33 33 34 35 34 33 33 33 32 31 32 32 32 32 31 30 30 29 29 29 29 29 28 28 28 29 29 29 30 30 30 31 31 31 31 31 31 31 31 31 32
38 36 36 35 34 33 34 34 34 34 34 34 34 32 32 32 32 33 32 31 31 30 30 30 30 30 30 31 31 31 31 32 32 33 32 32 32 32 32 32 33 33 34 34
39 37 37 36 34 34 34 34 33 34 33 34 34 33 34 34 34 33 33 33 32 32 31 31 31 31 31 32 32 33 33 33 33 33 33 33 33 33 33 33 34 34 35 35
38 38 37 36 35 34 34 34 34 34 35 35 35 34 35 35 34 33 33 32 32 32 32 33 33 33 33 33 33 34 34 34 34 34 34 34 34 35 35 35 35 35 35 35
37 37 37 36 35 35 35 35 35 35 36 37 37 36 35 35 34 34 34 33 33 33 34 34 34 34 34 34 35 35 35 35 36 35 35 35 36 36 36 35 35 35 35 35
35 36 35 35 34 34 34 35 36 36 36 36 36 36 35 34 34 34 34 34 34 34 35 35 35 34 35 35 35 35 36 36 36 36 37 36 36 36 36 35 35 36 36 36
34 36 36 34 33 33 33 34 35 37 37 37 36 36 35 34 34 34 34 35 35 35 35 35 35 35 35 35 35 35 36 36 36 36 36 36 36 36 36 36 35 36 36 36
34 35 34 34 33 33 33 33 33 34 35 36 37 36 37 36 34 34 34 35 35 35 34 34 34 35 36 36 35 35 36 36 36 36 36 36 36 36 36 36 37 37 37 37
32 31 32 33 33 33 32 33 33 34 34 34 35 36 36 35 35 35 35 34 34 34 34 34 35 35 35 35 35 35 35 36 36 37 36 36 37 37 38 38 38 39 39 39
30 30 30 30 32 32 31 31 32 32 32 32 33 34 34 34 34 34 33 34 34 34 34 34 34 34 35 35 36 36 36 36 37 37 37 37 37 38 38 38 38 39 39 39
26 27 27 27 27 28 28 28 29 29 29 29 31 32 33 33 33 32 31 31 31 32 33 33 33 34 35 35 36 36 36 36 36 36 36 37 37 37 37 38 38 38 39 39
24 25 25 26 25 25 26 26 27 26 27 28 28 28 29 29 30 29 29 29 29 29 30 30 31 32 32 33 33 34 34 34 34 34 35 35 36 36 37 37 38 38 38 37
24 24 25 25 25 25 25 25 25 25 25 25 26 27 27 26 27 27 27 28 28 29 29 30 30 31 31 31 32 32 32 33 33 33 33 33 34 34 35 36 36 36 36 36
23 23 24 24 24 24 24 24 24 24 24 25 25 25 25 25 26 27 27 28 28 29 29 29 30 30 31 31 31 31 31 32 32 32 32 32 32 33 33 33 33 33 34 35
22 23 24 24 23 23 23 23 23 23 24 24 24 24 24 25 25 26 27 27 27 28 28 28 29 29 29 29 29 29 30 31 32 32 32 31 31 31 32 33 33 33 33 33
20 21 21 21 21 22 22 22 22 22 22 22 22 22 22 23 23 24 24 25 25 25 26 26 27 27 27 27 27 28 28 29 29 30 30 30 30 31 32 32 32 32 33 33
18 18 18 19 20 20 20 20 21 21 21 21 21 21 21 20 20 21 21 22 24 24 24 24 25 25 26 26 27 27 27 27 27 28 29 29 30 30 31 31 31 31 31 31
Wind_Direction
226 227 230 230 230 231 236 241 246 249 251 250 250 255 259 259 261 265 267 270 274 277 277 278 281 284 287 289 289 285 286 287 288 289 290 289 290 291 293 294 293 293 295 297
227 226 230 233 235 238 237 240 244 247 247 243 243 248 253 256 258 262 265 267 268 272 274 277 281 282 283 283 286 286 284 283 282 283 285 287 289 289 291 292 293 292 291 293
227 228 231 234 236 238 238 238 243 245 248 246 244 247 251 254 256 260 263 264 267 270 270 274 278 280 279 278 280 282 283 282 281 281 281 284 285 288 290 290 290 291 290 292
227 229 232 232 233 235 239 238 239 243 244 246 251 252 252 253 254 258 263 265 267 269 271 272 274 275 275 276 277 279 280 281 283 281 280 281 283 286 286 287 287 288 289 290
229 231 233 231 232 235 237 236 238 240 244 247 252 252 251 254 256 259 263 265 268 270 271 272 273 274 273 274 275 276 277 278 278 280 280 283 285 285 284 285 286 286 286 287
231 233 234 232 233 235 238 238 239 242 245 250 252 252 255 257 257 258 262 264 266 268 270 271 273 273 272 273 273 274 275 275 276 279 281 282 284 284 283 284 285 285 285 285
233 235 237 235 234 234 238 239 240 243 247 251 253 254 255 257 258 258 260 263 264 266 268 270 271 272 272 272 272 273 275 275 276 278 279 280 280 282 283 283 283 285 287 286
233 236 239 238 236 237 241 242 240 242 246 250 252 252 254 257 258 259 260 261 263 264 267 270 271 271 271 272 272 273 274 276 278 279 279 281 281 282 283 284 284 286 287 288
235 238 240 239 238 239 240 241 241 242 244 247 249 251 254 256 257 259 261 261 263 265 268 269 270 270 270 270 272 273 275 276 277 277 278 279 281 283 284 285 285 285 286 288
236 238 240 241 241 240 240 241 244 245 245 247 248 250 253 256 258 259 260 261 263 265 267 269 270 273 273 272 271 273 274 276 277 277 278 280 281 283 285 287 287 287 288 288
237 239 241 243 244 243 242 242 243 244 244 245 248 252 254 256 257 259 262 262 263 263 265 267 270 271 271 271 272 273 274 275 276 277 278 279 281 282 284 285 286 286 287 288
238 239 242 243 244 245 245 243 244 245 245 248 251 252 255 257 259 261 263 264 263 264 264 266 269 271 272 273 273 273 272 274 276 276 277 279 281 282 282 284 285 286 286 287
237 239 242 245 245 246 246 245 244 245 247 249 251 253 255 257 260 262 262 263 264 264 265 266 268 270 272 274 274 273 272 274 276 275 276 278 280 281 282 283 284 285 286 288
237 240 243 245 247 247 246 246 246 247 248 250 252 253 254 256 258 261 262 263 264 265 267 268 268 268 270 273 274 273 274 275 276 276 277 278 279 280 282 283 284 285 286 287
238 240 243 245 247 247 246 245 246 247 248 250 252 255 254 255 256 259 260 261 263 266 268 269 269 270 271 272 273 273 274 275 277 276 277 277 278 279 282 284 285 286 288 289
240 242 246 248 248 247 248 248 247 248 249 251 252 254 255 255 257 259 259 260 263 266 268 269 270 271 272 273 274 276 277 276 276 277 277 279 281 282 283 285 287 288 288 289
243 245 246 248 246 248 249 250 249 249 250 251 253 255 256 257 258 259 260 260 261 263 266 268 270 272 273 274 275 275 277 277 277 278 279 281 282 284 285 287 288 288 289 289
245 246 246 247 249 249 249 250 249 250 250 252 253 255 256 258 258 261 261 259 260 261 263 266 269 271 273 275 276 277 278 279 279 279 280 282 283 284 285 287 288 289 290 290
244 246 246 246 248 250 250 250 252 252 252 252 252 255 257 257 259 261 262 262 261 263 266 267 269 271 273 274 276 277 277 278 279 280 281 282 283 284 285 286 287 288 288 289
243 246 247 247 248 250 249 250 252 252 252 252 253 255 256 258 260 262 262 262 263 266 268 269 270 271 273 274 275 276 277 279 281 281 282 283 284 284 285 286 287 288 288 288
243 244 244 245 246 246 247 248 251 252 253 253 254 256 257 258 259 262 263 263 265 268 269 270 271 272 274 275 275 276 279 281 282 282 282 283 285 286 287 288 288 289 289 288
242 243 243 244 244 244 246 248 251 253 253 254 256 257 258 259 262 262 263 264 265 267 268 270 272 274 275 276 277 278 280 282 282 282 283 284 286 287 287 288 288 289 289 289
246 245 244 244 244 245 247 250 252 252 253 255 257 257 259 261 262 261 262 263 265 266 268 270 272 274 275 276 278 280 281 281 282 283 284 285 287 287 288 289 290 289 289 290
249 250 247 247 248 249 252 255 255 255 257 260 259 259 260 261 261 262 265 266 267 269 270 272 273 273 274 278 280 281 281 282 282 284 286 287 288 288 289 290 291 291 292 292
249 250 248 249 250 251 252 253 255 257 259 261 261 259 261 263 264 264 266 267 268 270 272 274 274 273 275 277 279 281 283 283 284 285 287 288 289 290 290 292 292 293 293 293
252 253 250 249 249 250 251 253 254 256 259 260 261 262 263 266 267 267 266 266 268 270 272 275 274 275 278 280 282 286 287 288 288 289 290 291 291 292 293 294 296 296 296 296
251 247 246 247 248 249 251 253 255 256 256 259 263 262 262 264 267 268 268 268 269 270 271 273 275 276 279 282 285 287 288 288 290 291 291 291 292 293 294 295 296 299 298 298
Height
5869 5873 5875 5878 5881 5883 5886 5888 5889 5891 5893 5894 5896 5897 5898 5899 5899 5900 5900 5901 5902 5902 5901 5901 5902 5902 5901 5901 5900 5900 5899 5899 5898 5897 5896 5895 5894 5893 5892 5891 5889 5888 5886 5885
5863 5867 5869 5872 5875 5877 5880 5882 5884 5885 5887 5889 5890 5891 5892 5893 5895 5896 5896 5896 5897 5897 5897 5897 5897 5898 5898 5898 5897 5896 5896 5896 5895 5894 5893 5892 5891 5890 5888 5887 5886 5884 5883 5881
5857 5860 5863 5865 5869 5871 5873 5875 5878 5880 5883 5883 5885 5886 5887 5888 5889 5890 5891 5892 5892 5892 5893 5893 5893 5893 5893 5893 5893 5892 5892 5891 5890 5890 5889 5888 5887 5886 5885 5883 5882 5880 5879 5877
5849 5854 5855 5861 5863 5865 5867 5869 5871 5874 5876 5877 5879 5881 5881 5882 5884 5885 5886 5886 5887 5887 5887 5888 5888 5888 5888 5888 5888 5888 5887 5886 5886 5885 5885 5884 5883 5881 5880 5878 5877 5875 5874 5872
5842 5845 5848 5854 5856 5858 5860 5862 5865 5866 5869 5871 5873 5874 5876 5877 5878 5879 5880 5881 5881 5882 5882 5882 5883 5883 5883 5883 5883 5882 5882 5881 5881 5880 5879 5878 5877 5876 5874 5873 5871 5870 5868 5866
5834 5837 5841 5848 5850 5851 5854 5856 5858 5860 5862 5864 5866 5868 5870 5871 5872 5873 5874 5874 5876 5876 5876 5876 5877 5877 5877 5877 5877 5877 5876 5876 5875 5874 5873 5872 5871 5869 5868 5866 5865 5863 5861 5859
5826 5829 5834 5840 5842 5844 5847 5850 5852 5853 5855 5857 5860 5862 5864 5864 5865 5866 5867 5868 5869 5869 5869 5870 5870 5870 5870 5870 5870 5870 5869 5868 5868 5867 5866 5865 5864 5862 5861 5859 5857 5856 5854 5852
5818 5822 5828 5831 5834 5836 5839 5842 5844 5847 5849 5851 5852 5854 5856 5857 5858 5859 5860 5861 5861 5862 5863 5863 5863 5864 5864 5863 5863 5863 5862 5862 5861 5860 5859 5858 5856 5855 5853 5852 5849 5847 5846 5844
5812 5817 5819 5822 5825 5828 5831 5833 5836 5839 5842 5844 5845 5847 5849 5850 5851 5853 5853 5854 5855 5855 5856 5856 5856 5856 5856 5856 5856 5855 5855 5854 5854 5853 5852 5850 5849 5847 5845 5843 5841 5839 5837 5836
5804 5807 5811 5814 5817 5820 5823 5825 5828 5831 5833 5836 5838 5840 5841 5843 5844 5845 5846 5847 5848 5848 5848 5849 5849 5849 5849 5848 5848 5848 5847 5846 5846 5844 5843 5842 5840 5839 5837 5835 5833 5832 5830 5827
5795 5799 5803 5806 5809 5812 5815 5817 5820 5822 5824 5827 5829 5831 5833 5834 5836 5837 5838 5839 5840 5840 5841 5841 5841 5841 5840 5840 5839 5839 5838 5838 5836 5835 5834 5833 5831 5830 5828 5827 5825 5823 5821 5818
5787 5791 5794 5798 5800 5803 5805 5808 5811 5813 5815 5817 5820 5822 5824 5825 5827 5828 5829 5830 5831 5832 5832 5832 5832 5832 5831 5831 5830 5830 5829 5829 5827 5825 5824 5823 5822 5820 5818 5817 5815 5813 5811 5808
5779 5782 5786 5789 5791 5794 5796 5799 5801 5803 5805 5808 5810 5813 5815 5816 5818 5819 5820 5821 5821 5822 5823 5823 5823 5822 5822 5821 5821 5820 5820 5819 5817 5815 5814 5813 5811 5810 5808 5807 5805 5803 5801 5798
5770 5773 5776 5779 5782 5785 5787 5789 5792 5794 5796 5798 5800 5802 5804 5806 5808 5809 5810 5811 5812 5812 5813 5813 5813 5813 5812 5812 5811 5810 5809 5808 5807 5805 5804 5802 5801 5799 5798 5796 5794 5792 5790 5787
5761 5764 5767 5769 5772 5775 5776 5778 5781 5784 5786 5788 5790 5792 5793 5795 5797 5799 5800 5800 5801 5802 5803 5803 5803 5802 5802 5801 5800 5799 5798 5797 5796 5794 5793 5791 5790 5789 5787 5785 5783 5781 5779 5777
5753 5756 5758 5759 5761 5763 5765 5767 5771 5774 5776 5778 5780 5781 5782 5784 5786 5788 5789 5790 5790 5791 5792 5792 5792 5792 5791 5790 5790 5789 5788 5786 5785 5784 5782 5781 5779 5778 5776 5774 5772 5770 5768 5765
5743 5746 5748 5750 5752 5754 5755 5758 5760 5763 5765 5767 5769 5771 5773 5774 5775 5777 5778 5779 5779 5780 5781 5781 5781 5781 5780 5780 5779 5778 5777 5775 5774 5773 5771 5770 5768 5766 5765 5763 5760 5758 5756 5753
5734 5737 5739 5741 5743 5745 5746 5748 5750 5752 5754 5757 5759 5760 5762 5763 5765 5766 5767 5767 5768 5769 5769 5770 5770 5770 5770 5769 5768 5767 5766 5765 5763 5762 5761 5759 5757 5755 5753 5751 5749 5747 5745 5742
5725 5728 5731 5733 5734 5736 5738 5740 5741 5743 5745 5746 5748 5750 5751 5753 5755 5755 5756 5757 5758 5758 5759 5759 5759 5759 5759 5758 5758 5756 5755 5754 5753 5751 5750 5748 5746 5744 5742 5740 5738 5735 5733 5730
5717 5720 5722 5724 5725 5727 5729 5731 5733 5735 5736 5737 5739 5741 5742 5743 5744 5745 5746 5746 5747 5747 5748 5748 5748 5748 5748 5748 5747 5745 5744 5743 5741 5740 5738 5737 5735 5732 5730 5728 5725 5723 5720 5718
5710 5711 5714 5716 5717 5719 5721 5723 5724 5726 5727 5729 5730 5732 5733 5734 5735 5735 5735 5736 5737 5737 5737 5737 5737 5737 5737 5737 5736 5735 5734 5732 5731 5729 5727 5725 5723 5721 5718 5716 5713 5711 5708 5706
5702 5704 5706 5709 5710 5712 5714 5715 5717 5718 5719 5720 5722 5723 5724 5725 5725 5726 5726 5727 5727 5727 5727 5727 5727 5727 5727 5726 5725 5724 5723 5722 5720 5718 5717 5714 5712 5710 5707 5704 5702 5699 5696 5693
5695 5697 5699 5701 5703 5704 5706 5707 5709 5710 5711 5712 5713 5715 5716 5716 5717 5718 5718 5718 5718 5719 5719 5719 5719 5718 5717 5717 5716 5714 5713 5711 5710 5708 5706 5704 5701 5699 5696 5694 5691 5688 5684 5682
5688 5690 5692 5694 5696 5698 5699 5700 5701 5702 5704 5704 5706 5707 5707 5708 5709 5710 5710 5710 5710 5711 5710 5710 5710 5709 5708 5707 5706 5704 5703 5701 5700 5697 5695 5693 5691 5688 5686 5683 5680 5677 5674 5671
5682 5683 5685 5687 5689 5690 5692 5693 5694 5696 5697 5698 5699 5699 5700 5701 5701 5702 5702 5702 5702 5702 5702 5702 5701 5701 5700 5699 5697 5695 5694 5692 5690 5688 5685 5683 5681 5678 5676 5673 5670 5667 5664 5661
5676 5677 5679 5680 5682 5684 5685 5687 5688 5689 5690 5691 5692 5692 5693 5694 5694 5694 5694 5694 5695 5694 5694 5694 5693 5692 5691 5690 5689 5687 5685 5683 5681 5679 5676 5674 5672 5669 5666 5663 5660 5657 5654 5651
5670 5671 5673 5674 5676 5678 5679 5680 5681 5683 5684 5685 5685 5686 5686 5687 5687 5687 5687 5687 5687 5687 5686 5686 5685 5684 5683 5682 5680 5678 5676 5674 5673 5670 5668 5666 5663 5660 5657 5654 5651 5648 5645 5642